Overview Statistics Trail Chart Weather Telemetry Raw packets
 

This is the latest recevied weather packets stored in our database for station/object s59zo-6. If no packets are shown the sender has not sent any weather packets the latest 10 day(s).

<< 79 80 81 82 83 84 85 >>
Time Temp. Humidity Pressure Rain* Wind** Luminosity Snow
1788027304 21.67° C 68% 1019.4 hPa 0 mm - - -
1788027005 21.67° C 67% 1019.3 hPa 0 mm - - -
1788026705 22.22° C 65% 1019.4 hPa 0 mm - - -
1788026405 22.22° C 65% 1019.1 hPa 0 mm - - -
1788026115 22.22° C 64% 1019.1 hPa 0 mm - - -
1788025805 22.78° C 60% 1019.1 hPa 0 mm - - -
1788025504 22.78° C 60% 1019.1 hPa 0 mm - - -
1788025205 23.33° C 59% 1019.2 hPa 0 mm - - -
1788024905 23.89° C 57% 1019.1 hPa 0 mm - - -
1788024605 23.89° C 56% 1019.2 hPa 0 mm - - -
1788024304 24.44° C 54% 1019 hPa 0 mm - - -
1788024005 24.44° C 54% 1019.2 hPa 0 mm - - -
1788023705 24.44° C 54% 1019.1 hPa 0 mm - - -
1788023404 25° C 54% 1019.3 hPa 0 mm - - -
1788023104 25° C 53% 1019.3 hPa 0 mm - - -
1788022805 25° C 53% 1019.3 hPa 0 mm - - -
1788022505 25° C 53% 1019.2 hPa 0 mm - - -
1788022205 25° C 53% 1019.3 hPa 0 mm - - -
1788021904 24.44° C 53% 1019.3 hPa 0 mm - - -
1788021605 25° C 53% 1019.4 hPa 0 mm - - -
1788021304 25° C 53% 1019.5 hPa 0 mm - - -
1788021005 25° C 53% 1019.4 hPa 0 mm - - -
1788020704 25° C 53% 1019.4 hPa 0 mm - - -
1788020405 24.44° C 53% 1019.6 hPa 0 mm - - -
1788020105 24.44° C 53% 1019.3 hPa 0 mm - - -

* Rain latest hour (hover to see other rain measurements)
** Current wind speed in m/s (hover to see current wind gust speed)